Location: Dos Palmas
(32.4468°N, 116.8732°W)
Time: 02:26:33
(UTC+00:00)

Cosmos 1340 - Pass Details

Date: 20 June 2021
Orbit: 498 x 504 km, 81.2° (Epoch: 27 July)

Event Time Altitude Azimuth Distance (km) Brightness Sun altitude
Exits shadow 05:20:27 65° 332° (NNW) 556 2.9 -23.8°
Drops below altitude 10° 05:23:48 10° 4° (N) 1,718 6.0 -24.2°
Sets 05:25:56 0° 6° (N) 2,607 7.0 -24.5°
